Weather History for KBFF - August, 2014

Change the Weather History Date:

Monday, August 25, 2014

  Actual Average Record
Temperature  
Mean Temperature 64 °F 70 °F  
Max Temperature 78 °F 86 °F 101 °F (1991)
Min Temperature 50 °F 54 °F 30 °F (1910)
Degree Days  
Heating Degree Days 1 1  
Month to date heating degree days 1 4  
Since 1 June heating degree days 61 70  
Since 1 July heating degree days 8 10  
Cooling Degree Days 0 6  
Month to date cooling degree days 221 197  
Year to date cooling degree days 625 633  
Since 1 June cooling degree days 598 610  
Growing Degree Days 14 (Base 50)    
Moisture  
Dew Point 47 °F    
Average Humidity 57    
Maximum Humidity 78    
Minimum Humidity 36    
Precipitation  
Precipitation T in 0.04 in 0.92 in (1905)
Month to date precipitation 0.51 1.08  
Year to date precipitation 10.89 12.08  
Snow  
Snow 0.00 in 0.00 in - ()
Month to date snowfall 0.0 0.0  
Since 1 July snowfall 0.0 0.0  
Snow Depth 0.00 in    
Sea Level Pressure  
Sea Level Pressure 30.05 in    
Wind  
Wind Speed 7 mph (SSE)    
Max Wind Speed 14 mph    
Max Gust Speed 17 mph    
Visibility 10 miles    
Events      
T = Trace of Precipitation, MM = Missing Value Source: NWS Daily Summary

Daily Weather History Graph

Daily Weather History Graph

Search for Another Location

Airport or City:

Trip Planner

Search our weather history database for the weather conditions in past years. The results will help you decide how hot, cold, wet, or windy it might be!

Date:

Astronomy

Aug. 25, 2014 Rise Set
Actual Time 6:12 AM MDT 7:39 PM MDT
Civil Twilight 5:43 AM MDT 8:08 PM MDT
Nautical Twilight 5:08 AM MDT 8:43 PM MDT
Astronomical Twilight 4:31 AM MDT 9:20 PM MDT
Moon 6:21 AM MDT (8/25) 7:29 PM MDT (8/25)
Length of Visible Light 14h 24m
Length of Day
13h 26m
New Moon, 0% of the Moon is Illuminated
Aug 25
New Moon
Sep 2
First Quarter
Sep 8
Full
Sep 15
Last Quarter
Sep 24
New

Hourly Weather History & Observations

Time (MDT) Temp. Dew Point Humidity Pressure Visibility Wind Dir Wind Speed Gust Speed Precip Events Conditions
12:53 AM 57.0 °F 42.1 °F 57% 29.98 in 10.0 mi Variable 5.8 mph - N/A   Scattered Clouds
1:53 AM 53.1 °F 42.1 °F 66% 30.00 in 10.0 mi NW 9.2 mph - N/A   Clear
2:53 AM 53.1 °F 42.1 °F 66% 30.02 in 10.0 mi West 11.5 mph - N/A   Clear
3:53 AM 50.0 °F 43.0 °F 77% 30.02 in 10.0 mi WNW 4.6 mph - N/A   Clear
4:53 AM 51.1 °F 44.1 °F 77% 30.02 in 10.0 mi WNW 4.6 mph - N/A   Scattered Clouds
5:53 AM 52.0 °F 45.0 °F 77% 30.03 in 10.0 mi SW 3.5 mph - N/A   Clear
6:53 AM 51.1 °F 45.0 °F 80% 30.06 in 10.0 mi WNW 8.1 mph - N/A   Clear
7:53 AM 53.6 °F 44.6 °F 72% 30.19 in 10.0 mi WSW 4.6 mph - N/A   Mostly Cloudy
8:53 AM 55.9 °F 44.1 °F 64% 30.14 in 10.0 mi West 8.1 mph - 0.00 in   Overcast
9:53 AM 62.1 °F 44.1 °F 52% 30.09 in 10.0 mi Variable 3.5 mph - 0.00 in   Clear
10:53 AM 63.0 °F 45.0 °F 52% 30.09 in 10.0 mi ESE 5.8 mph - N/A   Clear
11:53 AM 69.1 °F 45.0 °F 42% 30.08 in 10.0 mi Variable 4.6 mph - N/A   Clear
12:53 PM 73.0 °F 46.0 °F 38% 30.06 in 10.0 mi Calm Calm - N/A   Clear
1:53 PM 73.0 °F 48.0 °F 41% 30.06 in 10.0 mi South 9.2 mph - N/A   Unknown
2:53 PM 75.0 °F 46.9 °F 37% 30.04 in 10.0 mi Variable 6.9 mph - N/A   Clear
3:53 PM 75.9 °F 48.9 °F 38% 30.02 in 10.0 mi ESE 5.8 mph - N/A   Clear
4:53 PM 75.9 °F 50.0 °F 40% 30.01 in 10.0 mi ESE 8.1 mph - N/A   Clear
5:53 PM 73.0 °F 50.0 °F 44% 30.01 in 10.0 mi SE 9.2 mph - N/A   Clear
6:53 PM 73.9 °F 52.0 °F 46% 29.99 in 10.0 mi SE 13.8 mph - 0.00 in   Clear
7:53 PM 66.2 °F 55.4 °F 68% 30.10 in 10.0 mi East 6.9 mph - N/A   Clear
8:53 PM 64.4 °F 53.6 °F 68% 30.13 in 10.0 mi ENE 6.9 mph - N/A   Clear
9:53 PM 63.0 °F 52.0 °F 67% 30.05 in 10.0 mi South 4.6 mph - N/A   Clear
10:53 PM 63.0 °F 52.0 °F 67% 30.02 in 10.0 mi ESE 6.9 mph - N/A   Clear
11:53 PM 60.1 °F 53.1 °F 78% 30.04 in 10.0 mi ESE 9.2 mph - N/A   Partly Cloudy